[[{"header":{"parameterUnit":"m.s-1","parameterCategory":1,"la1":30.2991,"la2":30.254,"lo1":-89.0895,"lo2":-89.0444,"dy":0.0017,"dx":0.0017,"nx":28,"ny":28,"refTime":"2025-12-02T03:00:00:Z","depth":0,"parameterNumber":2,"parameterNumberName":"U-component_of_WINDS"},"data":[0,0,0,0,0,0,0,0,0,0,0,0,0,0,0,0,0,0,0,0,0,0,0,0,0,0,0,0,0,0,0,0,0,0,0,0,0,0,0,0,0,0,0,0,0,0,0,0,0,0,0,0,0,0,0,0,0,0,-1.3097,-1.3098,0,-1.3221,-1.3222,-1.3224,-1.3228,-1.3227,-1.3225,-1.3224,-1.335,-1.3355,-1.336,0,0,0,0,0,0,0,0,0,0,0,0,0,-1.2862,-1.2867,-1.3097,-1.3098,-1.31,-1.3221,-1.3222,-1.3224,-1.3229,-1.3227,-1.3225,-1.3223,-1.3349,-1.3354,-1.336,0,0,0,0,0,0,0,0,0,0,0,0,0,-1.2973,-1.2868,-1.3097,-1.3117,-1.312,-1.322,-1.3222,-1.3225,-1.3229,-1.3227,-1.3225,-1.3222,-1.3347,-1.3354,-1.3361,-1.345,0,0,-1.3383,-1.3386,0,0,0,0,0,0,0,0,-1.2967,-1.2982,-1.3112,-1.3116,-1.3119,-1.3207,-1.3186,-1.33,-1.323,-1.3188,-1.3224,-1.3221,-1.3304,-1.3315,-1.3343,-1.3455,-1.3461,-1.3383,-1.3388,-1.3391,-1.3393,0,0,0,0,0,0,0,-1.2959,-1.2976,-1.3146,-1.3114,-1.3118,-1.3119,-1.3132,-1.3208,-1.3257,-1.3191,-1.3192,-1.3206,-1.3306,-1.3336,-1.3346,-1.3463,-1.3383,-1.3389,-1.3394,-1.3397,-1.3654,-1.3656,0,0,0,0,0,0,-1.2948,-1.297,-1.3142,-1.315,-1.3036,-1.3125,-1.314,-1.3181,-1.3256,-1.3265,-1.3208,-1.3206,-1.3325,-1.3338,-1.3351,-1.346,-1.3391,-1.3397,-1.3401,-1.3651,-1.3654,-1.3657,0,0,0,0,0,0,-1.2943,-1.2963,-1.3137,-1.306,-1.3082,-1.3132,-1.3178,-1.3185,-1.3215,-1.3269,-1.3278,-1.323,-1.3324,-1.334,-1.3425,-1.3464,-1.3401,-1.3407,-1.3648,-1.3652,-1.3656,-1.3679,0,0,0,0,0,0,-1.2936,-1.2961,-1.2996,-1.3061,-1.3086,-1.321,-1.318,-1.3189,-1.3227,-1.3226,-1.3292,-1.3301,-1.3323,-1.3414,-1.3432,-1.3473,-1.3413,-1.3645,-1.365,-1.3654,-1.3675,-1.3683,-1.369,0,0,0,0,0,-1.2927,-1.2997,-1.2998,-1.3018,-1.3131,-1.3212,-1.3227,-1.3252,-1.323,-1.3266,-1.33,-1.3299,-1.3456,-1.3423,-1.3443,-1.3487,-1.3643,-1.3648,-1.3654,-1.3671,-1.3681,-1.369,0,0,0,0,0,0,-1.2936,-1.3006,-1.3007,-1.31,-1.315,-1.3213,-1.3258,-1.3261,-1.3318,-1.3314,-1.3342,-1.3357,-1.3441,-1.3472,-1.3433,-1.3576,-1.3547,-1.3557,-1.3553,-1.3563,-1.3571,-1.3562,-1.3419,0,0,0,0,0,-1.2948,-1.3009,-1.3067,-1.3143,-1.3168,-1.3209,-1.3245,-1.326,-1.3312,-1.3334,-1.3374,-1.3425,-1.3486,-1.3526,-1.3585,-1.3678,-1.3693,-1.3718,-1.3725,-1.3731,-1.374,-1.3792,-1.3804,-1.3676,-1.3676,-1.3676,0,0,-1.2975,-1.3021,-1.3058,-1.3146,-1.3187,-1.3248,-1.3227,-1.3293,-1.3339,-1.3344,-1.3426,-1.3457,-1.3516,-1.3605,-1.3647,-1.3634,-1.3779,-1.3739,-1.3743,-1.3749,-1.3799,-1.3811,-1.3822,-1.368,-1.3679,-1.3678,0,0,-1.3056,-1.3097,-1.3165,-1.3206,-1.3267,-1.3293,-1.3309,-1.3372,-1.3393,-1.3476,-1.348,-1.3535,-1.3639,-1.3681,-1.3716,-1.3811,-1.3812,-1.3829,-1.3869,-1.392,-1.393,-1.3939,-1.3974,-1.3986,-1.3837,-1.3837,-1.3837,0,-1.3082,-1.3176,-1.32,-1.3267,-1.3305,-1.3311,-1.3381,-1.3419,-1.3496,-1.3523,-1.3506,-1.3638,-1.3677,-1.3777,-1.38,-1.3827,-1.3847,-1.3823,-1.3926,-1.3936,-1.3945,-1.3978,-1.3991,-1.3839,-1.3839,-1.3839,-1.3838,0,-1.3205,-1.327,-1.3318,-1.3393,-1.3436,-1.3504,-1.3537,-1.3579,-1.3588,-1.3616,-1.37,-1.3748,-1.3817,-1.3841,-1.3851,-1.3941,-1.3932,-1.392,-1.3892,-1.3958,-1.399,-1.4003,-1.3842,-1.3841,-1.384,-1.384,0,0,-1.3298,-1.3384,-1.3401,-1.3435,-1.3502,-1.3553,-1.3619,-1.3687,-1.3722,-1.3774,-1.3832,-1.3919,-1.3909,-1.3949,-1.3963,-1.4007,-1.408,-1.3991,-1.3992,-1.4007,-1.4183,-1.4193,-1.4207,-1.408,-1.4082,-1.4084,-1.4179,0,-1.3387,-1.3508,-1.3531,-1.3636,-1.3696,-1.3702,-1.376,-1.3807,-1.3834,-1.3889,-1.3918,-1.398,-1.3962,-1.3985,-1.4029,-1.4062,-1.4116,-1.4055,-1.4134,-1.4137,-1.4122,-1.4224,-1.4234,-1.4321,-1.4191,-1.4193,-1.4195,0,-1.3509,-1.3565,-1.3676,-1.3735,-1.3761,-1.3813,-1.3877,-1.3928,-1.3982,-1.3998,-1.4041,-1.4051,-1.412,-1.4087,-1.4183,-1.4141,-1.4174,-1.4195,-1.4199,-1.4209,-1.4172,-1.4238,-1.4349,-1.4363,-1.4215,-1.4213,-1.4212,0,-1.3567,-1.367,-1.375,-1.3778,-1.3848,-1.3885,-1.3916,-1.3967,-1.4005,-1.406,-1.4086,-1.4147,-1.4182,-1.4229,-1.4254,-1.4228,-1.4349,-1.4318,-1.4365,-1.4365,-1.4393,-1.4391,-1.4512,-1.441,-1.441,-1.441,-1.441,0,-1.3667,-1.3735,-1.3777,-1.3826,-1.3902,-1.3926,-1.4001,-1.4031,-1.4076,-1.4131,-1.4138,-1.4189,-1.4219,-1.4274,-1.4294,-1.4371,-1.4386,-1.4401,-1.4406,-1.4402,-1.44,-1.4426,-1.4421,-1.4413,-1.4413,-1.4412,-1.4411,0,-1.3746,-1.3776,-1.3864,-1.3923,-1.3939,-1.3993,-1.4043,-1.409,-1.4116,-1.4186,-1.4203,-1.4244,-1.4309,-1.4338,-1.4419,-1.4432,-1.4521,-1.452,-1.4503,-1.4505,-1.4552,-1.4548,-1.4696,-1.4717,-1.4599,-1.46,-1.4601,0,-1.3808,-1.3861,-1.3925,-1.3962,-1.3994,-1.4054,-1.4094,-1.4119,-1.4159,-1.4223,-1.4263,-1.4329,-1.4383,-1.4487,-1.4523,-1.4585,-1.4587,-1.4634,-1.4596,-1.4591,-1.459,-1.4587,-1.4593,-1.4642,-1.4643,-1.4644,-1.4645,0,-1.3916,-1.3929,-1.3986,-1.4048,-1.4095,-1.4145,-1.4194,-1.4224,-1.4256,-1.4302,-1.4369,-1.4411,-1.4492,-1.4558,-1.4621,-1.4652,-1.4655,-1.4656,-1.4671,-1.4668,-1.4657,-1.4665,-1.4524,-1.4653,-1.4653,-1.4652,-1.4652,-1.4651,-1.3991,-1.4038,-1.409,-1.4153,-1.4192,-1.4238,-1.4286,-1.4317,-1.4374,-1.4443,-1.4453,-1.4525,-1.4575,-1.4661,-1.4694,-1.475,-1.4738,-1.4759,-1.4765,-1.477,-1.4774,-1.4646,-1.4761,-1.4761,-1.4761,-1.476,-1.476,0,-1.41,-1.4134,-1.4192,-1.426,-1.431,-1.4306,-1.436,-1.4402,-1.4465,-1.4512,-1.4564,-1.4641,-1.4704,-1.4744,-1.4807,-1.4844,-1.4847,-1.486,-1.4859,-1.4866,-1.4779,-1.4761,-1.4857,-1.4857,-1.4857,-1.4857,-1.4857,-1.4857,-1.4164,-1.4244,-1.4262,-1.436,-1.4393,-1.4464,-1.4495,-1.4537,-1.4574,-1.466,-1.4712,-1.4738,-1.4782,-1.4848,-1.4906,-1.4916,-1.4939,-1.4954,-1.4964,-1.4882,-1.4872,-1.4863,-1.4846,-1.4958,-1.4958,-1.5046,-1.5047,-1.5047]},{"header":{"parameterUnit":"m.s-1","parameterCategory":1,"la1":30.2991,"la2":30.254,"lo1":-89.0895,"lo2":-89.0444,"dy":0.0017,"dx":0.0017,"nx":28,"ny":28,"refTime":"2025-12-02T03:00:00:Z","depth":0,"parameterNumber":3,"parameterNumberName":"V-component_of_WINDS"},"data":[0,0,0,0,0,0,0,0,0,0,0,0,0,0,0,0,0,0,0,0,0,0,0,0,0,0,0,0,0,0,0,0,0,0,0,0,0,0,0,0,0,0,0,0,0,0,0,0,0,0,0,0,0,0,0,0,0,0,-4.5945,-4.5947,0,-4.6117,-4.6119,-4.6121,-4.6088,-4.6085,-4.6082,-4.6079,-4.6255,-4.6262,-4.6269,0,0,0,0,0,0,0,0,0,0,0,0,0,-4.5588,-4.5595,-4.5945,-4.5947,-4.595,-4.6117,-4.612,-4.6122,-4.6089,-4.6085,-4.6081,-4.6078,-4.6252,-4.6261,-4.627,0,0,0,0,0,0,0,0,0,0,0,0,0,-4.575,-4.5597,-4.5945,-4.5953,-4.5956,-4.6117,-4.612,-4.6122,-4.609,-4.6085,-4.608,-4.6076,-4.6249,-4.626,-4.6271,-4.6434,0,0,-4.6306,-4.6311,0,0,0,0,0,0,0,0,-4.5741,-4.5763,-4.595,-4.5953,-4.5956,-4.6077,-4.6058,-4.6227,-4.6091,-4.6039,-4.6079,-4.6074,-4.6199,-4.6214,-4.6257,-4.6443,-4.645,-4.6307,-4.6314,-4.6319,-4.6322,0,0,0,0,0,0,0,-4.5729,-4.5755,-4.6013,-4.5953,-4.5957,-4.5948,-4.5966,-4.609,-4.6143,-4.6043,-4.6041,-4.6062,-4.62,-4.6246,-4.6261,-4.6453,-4.6307,-4.6317,-4.6324,-4.6328,-4.6782,-4.6787,0,0,0,0,0,0,-4.5715,-4.5746,-4.6008,-4.6018,-4.5835,-4.5959,-4.5979,-4.6043,-4.6141,-4.6152,-4.6066,-4.606,-4.6229,-4.6247,-4.6267,-4.6465,-4.6319,-4.6329,-4.6336,-4.6777,-4.6783,-4.6789,0,0,0,0,0,0,-4.5708,-4.5739,-4.6001,-4.5882,-4.5915,-4.597,-4.6042,-4.6048,-4.6094,-4.6159,-4.6168,-4.6103,-4.6226,-4.6251,-4.6393,-4.6471,-4.6334,-4.6345,-4.6771,-4.6779,-4.6786,-4.6863,0,0,0,0,0,0,-4.5698,-4.5737,-4.5799,-4.5884,-4.5921,-4.6125,-4.6047,-4.6055,-4.6114,-4.6108,-4.6196,-4.6206,-4.6224,-4.6376,-4.6404,-4.6484,-4.6353,-4.6764,-4.6774,-4.6784,-4.6853,-4.6872,-4.6888,0,0,0,0,0,-4.5685,-4.5813,-4.5802,-4.5834,-4.6001,-4.613,-4.6151,-4.6169,-4.6121,-4.6184,-4.6225,-4.6203,-4.6457,-4.6391,-4.6423,-4.6506,-4.6759,-4.6771,-4.6783,-4.6846,-4.6868,-4.6888,0,0,0,0,0,0,-4.5736,-4.5824,-4.5813,-4.5973,-4.6044,-4.6124,-4.6204,-4.6193,-4.6279,-4.6269,-4.6288,-4.6308,-4.6454,-4.6494,-4.6419,-4.667,-4.6601,-4.662,-4.6638,-4.6661,-4.6678,-4.6665,-4.6363,0,0,0,0,0,-4.5766,-4.5863,-4.5935,-4.6069,-4.6105,-4.6149,-4.6206,-4.6214,-4.6288,-4.6318,-4.6369,-4.6442,-4.6539,-4.6602,-4.6694,-4.6859,-4.6878,-4.6932,-4.6949,-4.6963,-4.6979,-4.7071,-4.7096,-4.6828,-4.6828,-4.6827,0,0,-4.5828,-4.5889,-4.5949,-4.6081,-4.6137,-4.6238,-4.6174,-4.6283,-4.6358,-4.6334,-4.6473,-4.6513,-4.6595,-4.675,-4.6821,-4.6789,-4.7058,-4.6978,-4.6989,-4.6998,-4.7085,-4.7111,-4.7133,-4.6836,-4.6834,-4.6833,0,0,-4.5994,-4.6049,-4.6167,-4.6225,-4.6311,-4.6339,-4.6367,-4.645,-4.6476,-4.6615,-4.6599,-4.6688,-4.6854,-4.6914,-4.6966,-4.7155,-4.7138,-4.7184,-4.7275,-4.7364,-4.7385,-4.7404,-4.7473,-4.7497,-4.72,-4.72,-4.72,0,-4.6061,-4.6212,-4.6229,-4.6341,-4.6399,-4.6383,-4.6503,-4.6558,-4.6669,-4.671,-4.6672,-4.688,-4.6934,-4.7103,-4.715,-4.7192,-4.7225,-4.7175,-4.7381,-4.74,-4.7418,-4.7484,-4.7509,-4.7205,-4.7205,-4.7204,-4.7204,0,-4.629,-4.6396,-4.6481,-4.659,-4.6658,-4.6773,-4.6808,-4.6875,-4.6877,-4.6909,-4.7052,-4.7116,-4.7222,-4.7262,-4.7265,-4.7432,-4.741,-4.7376,-4.7308,-4.7448,-4.751,-4.7536,-4.7213,-4.7211,-4.7209,-4.7208,0,0,-4.6493,-4.6611,-4.6642,-4.6692,-4.6786,-4.6867,-4.6982,-4.7085,-4.7143,-4.722,-4.7317,-4.7458,-4.7428,-4.7487,-4.7497,-4.7575,-4.7722,-4.7532,-4.7534,-4.7566,-4.7912,-4.7937,-4.7966,-4.7711,-4.7716,-4.772,-4.7905,0,-4.6668,-4.6871,-4.689,-4.7071,-4.717,-4.7155,-4.7255,-4.7324,-4.7357,-4.7445,-4.7481,-4.7582,-4.7534,-4.757,-4.7646,-4.7688,-4.7792,-4.7675,-4.7802,-4.7806,-4.7783,-4.7998,-4.8026,-4.8197,-4.7929,-4.7934,-4.7937,0,-4.6899,-4.6985,-4.7177,-4.7258,-4.73,-4.739,-4.7487,-4.7571,-4.7649,-4.7667,-4.7734,-4.7733,-4.7851,-4.7778,-4.7941,-4.7861,-4.7914,-4.7943,-4.795,-4.7963,-4.7881,-4.8019,-4.8252,-4.8279,-4.7975,-4.7972,-4.7969,0,-4.7029,-4.7192,-4.7328,-4.7371,-4.7469,-4.7533,-4.7577,-4.765,-4.7711,-4.7796,-4.7836,-4.7933,-4.7987,-4.8062,-4.8088,-4.8032,-4.8251,-4.8179,-4.827,-4.827,-4.8317,-4.8314,-4.8564,-4.835,-4.8349,-4.8349,-4.8348,0,-4.7224,-4.7342,-4.7388,-4.7472,-4.7604,-4.7625,-4.7755,-4.7796,-4.7861,-4.7953,-4.7946,-4.8032,-4.806,-4.8151,-4.8172,-4.8304,-4.8328,-4.8347,-4.8351,-4.8349,-4.8346,-4.8384,-4.8374,-4.8356,-4.8354,-4.8353,-4.8352,0,-4.7391,-4.7427,-4.7575,-4.7656,-4.7679,-4.7773,-4.7843,-4.7924,-4.7956,-4.8072,-4.81,-4.8151,-4.8258,-4.829,-4.8419,-4.8433,-4.8589,-4.8581,-4.8563,-4.8564,-4.8653,-4.8645,-4.8937,-4.8977,-4.8736,-4.8738,-4.874,0,-4.7514,-4.7604,-4.7696,-4.7757,-4.7804,-4.7902,-4.7965,-4.7989,-4.8055,-4.8151,-4.8221,-4.8326,-4.8412,-4.8584,-4.8632,-4.873,-4.8726,-4.8822,-4.8741,-4.8736,-4.8729,-4.8724,-4.8734,-4.8837,-4.884,-4.8842,-4.8844,0,-4.7727,-4.7741,-4.7832,-4.7931,-4.8006,-4.8084,-4.816,-4.821,-4.8245,-4.832,-4.8429,-4.8496,-4.8628,-4.8733,-4.8834,-4.8878,-4.8868,-4.8869,-4.8895,-4.8894,-4.888,-4.889,-4.8606,-4.8862,-4.886,-4.8859,-4.8858,-4.8857,-4.7877,-4.7957,-4.8035,-4.8137,-4.8197,-4.8268,-4.8348,-4.8391,-4.8483,-4.8592,-4.8601,-4.872,-4.8795,-4.8929,-4.8979,-4.9072,-4.9045,-4.9083,-4.9093,-4.9102,-4.911,-4.8864,-4.9091,-4.909,-4.909,-4.9089,-4.9089,0,-4.8091,-4.814,-4.8234,-4.8341,-4.8422,-4.8405,-4.8487,-4.8556,-4.8661,-4.8733,-4.8818,-4.8945,-4.9047,-4.9103,-4.9206,-4.927,-4.9267,-4.9296,-4.9292,-4.9303,-4.9128,-4.9096,-4.9296,-4.9296,-4.9296,-4.9296,-4.9296,-4.9296,-4.8212,-4.8348,-4.8371,-4.8537,-4.8585,-4.8702,-4.8751,-4.8816,-4.8874,-4.9016,-4.9102,-4.9138,-4.9204,-4.9311,-4.9404,-4.9418,-4.9457,-4.9489,-4.95,-4.9336,-4.9315,-4.9295,-4.9264,-4.9496,-4.9497,-4.9666,-4.9668,-4.9669]}]]